Regional Weather Roundup
Issued by NWS Spokane, WA

Home | Current Version | Previous Version | Text Only | Print | Product List | Glossary On
Versions: 1 2 3 4 5 6 7 8 9 10 11 12 13 14 15 16 17 18 19 20 21 22 23 24 25 26 27 28 29 30 31 32 33 34 35 36 37 38 39 40 41 42 43 44 45 46 47 48 49 50
000
NZUS01 KOTX 020510
RWROTX
EASTERN WASHINGTON/NORTHERN IDAHO ROUNDUP
NATIONAL WEATHER SERVICE, SPOKANE WA
1000 PM PDT TUE SEP 01 2015

Note: "fair" indicated few or no clouds below 12,000 feet with no
significant weather and/or obstructions to visibility.

...NORTHEAST WASHINGTON AND NORTHERN IDAHO PANHANDLE...

CITY           SKY/WX    TMP DP  RH WIND       PRES   REMARKS
SPOKANE INTL   CLOUDY    65  44  46 S5        29.75F
SPOKANE DOWNTO CLOUDY    63  45  51 CALM      29.75S
COEUR D ALENE  CLOUDY    64  43  45 SW7       29.75F
DEER PARK      CLOUDY    62  45  53 S7        29.75S
SANDPOINT      CLOUDY    54  46  76 CALM      29.74S
BONNERS FERRY  FAIR      57  48  72 CALM      29.73F

...SOUTHEAST WASHINGTON AND SOUTHERN IDAHO PANHANDLE...

CITY           SKY/WX    TMP DP  RH WIND       PRES   REMARKS
WALLA WALLA    CLOUDY    71  45  39 S9        29.77R
PULLMAN/MOSCOW CLOUDY    59  36  42 SW3       29.80S
LEWISTON       MOCLDY    72  36  26 CALM      29.73S
LOWELL           N/A     61  55  81 CALM      29.75R

...COLUMBIA BASIN...

CITY           SKY/WX    TMP DP  RH WIND       PRES   REMARKS
EPHRATA        CLOUDY    67  47  48 W6        29.68F
MOSES LAKE     CLOUDY    69  48  47 SW7       29.69F
TRI CITIES     CLOUDY    73  46  38 W10       29.73S
HERMISTON      CLOUDY    70  47  43 SW10      29.75S
PENDLETON      CLOUDY    67  44  43 W14       29.78R

...EAST SLOPES CASCADES...

CITY           SKY/WX    TMP DP  RH WIND       PRES   REMARKS
THE DALLES     CLOUDY    69  53  56 NW15      29.77R
YAKIMA         CLOUDY    70  46  42 NW8       29.72F
ELLENSBURG     CLOUDY    63  48  58 NW17      29.75S
WENATCHEE      CLOUDY    70  46  42 NW8       29.69F
OMAK           CLOUDY    69  44  40 S13       29.66S

...SOUTHERN BRITISH COLUMBIA...

CITY           SKY/WX    TMP DP  RH WIND       PRES   REMARKS
PENTICTON      CLOUDY    59  50  72 E3        29.64R
CRANBROOK      MOCLDY    55  41  58 S5        29.75F

...WESTERN MONTANA...

CITY           SKY/WX    TMP DP  RH WIND       PRES   REMARKS
MISSOULA       PTCLDY    66  35  31 NW8       29.77S

...NEIGHBORING CITIES...

CITY           SKY/WX    TMP DP  RH WIND       PRES   REMARKS
SEATTLE        CLOUDY    58  55  90 S12       29.82R
CALGARY        MOCLDY    57  37  47 S7        29.65F



USA.gov is the U.S. government's official web portal to all federal, state and local government web resources and services.